Probability
0 0 0 0 0 0 0 0 0 0 0 0 0 0 0 0 0 0 0 0 1 2 1 0 0 0 1 2 1 1 1 0 0 1 3 4 3 3 3 2 1 0 0
0 0 0 0 0 0 0 0 0 0 0 0 0 0 0 0 0 0 0 0 1 2 1 0 0 0 1 1 1 1 2 1 0 1 2 3 3 3 3 2 0 0 0
0 0 0 0 0 0 0 0 0 0 0 0 0 0 0 0 0 0 0 0 1 2 2 1 0 0 0 0 0 1 2 2 1 1 1 2 3 3 3 2 1 1 1
0 0 0 0 0 0 0 0 0 0 0 0 0 0 0 0 0 0 0 0 0 1 1 1 1 0 0 0 0 1 2 3 2 2 1 2 3 3 2 1 1 3 3
0 0 0 0 0 0 0 0 0 0 0 0 0 0 0 0 0 0 0 0 0 0 0 0 1 1 1 1 0 0 1 3 3 3 3 3 3 3 1 0 1 2 3
0 0 0 0 0 0 0 0 0 0 0 0 0 0 0 0 0 0 0 0 0 0 0 0 0 1 1 1 0 0 1 2 3 3 3 3 2 2 1 0 0 1 1
0 0 0 0 0 0 0 0 0 0 0 0 0 0 0 0 0 0 0 0 0 0 0 0 0 0 1 1 0 0 0 1 2 2 2 1 1 1 0 0 0 0 0
0 0 0 0 0 0 0 0 0 0 0 0 0 0 0 0 0 0 0 0 0 0 0 0 0 0 0 0 0 0 0 0 1 1 1 0 0 0 0 0 0 0 0
0 0 0 0 0 0 0 0 0 0 0 0 0 0 0 0 0 0 0 0 0 0 0 0 0 0 0 0 0 0 0 0 0 0 0 0 0 0 0 0 0 0 0
0 0 0 0 0 0 0 0 0 0 0 0 0 0 0 0 0 0 0 0 0 0 0 0 0 0 0 0 0 0 0 0 0 0 0 0 0 0 0 0 0 0 0
0 0 0 0 0 0 0 0 0 0 0 0 0 0 0 0 0 0 0 0 0 0 0 0 0 0 0 0 0 0 0 0 0 0 0 0 0 0 0 0 0 0 0
0 0 0 0 0 0 0 0 0 0 0 0 0 0 0 0 0 0 0 0 0 0 0 0 0 0 0 0 0 0 0 0 0 0 0 0 0 0 0 0 0 0 0
0 0 0 0 0 0 0 0 0 0 0 0 0 0 0 0 0 0 0 0 0 0 0 0 0 0 0 0 0 0 0 0 0 0 0 0 0 0 0 0 0 0 0
0 0 0 0 0 0 0 0 0 0 0 0 0 0 0 0 0 0 0 0 0 0 0 0 0 0 0 0 0 0 0 0 0 0 0 0 0 0 0 0 0 0 0
0 0 0 0 0 0 0 0 0 0 0 0 0 0 0 0 0 0 0 0 0 0 0 0 0 0 0 0 0 0 0 0 0 0 0 0 0 0 0 0 0 0 0
0 0 0 0 0 0 0 0 0 0 0 0 0 0 0 0 0 0 0 0 0 0 0 0 0 0 0 0 0 0 0 0 0 0 0 0 0 0 0 0 0 0 0
0 0 0 0 0 0 0 0 0 0 0 0 0 0 0 0 0 0 0 0 0 0 0 0 0 0 0 0 0 0 0 0 0 0 0 0 0 0 0 0 0 0 0
0 0 0 0 0 0 0 0 0 0 0 0 0 0 0 0 0 0 0 0 0 0 0 0 0 0 0 0 0 0 0 0 0 0 0 0 0 0 0 0 0 0 0
0 0 0 0 0 0 0 0 0 0 0 0 0 0 0 0 0 0 0 0 0 0 0 0 0 0 0 0 0 0 0 0 0 0 0 0 0 0 0 0 0 0 0
0 0 0 0 0 0 0 0 0 0 0 0 0 0 0 0 0 0 0 0 0 0 0 0 0 0 0 0 0 0 0 0 0 0 0 0 0 0 0 0 0 0 0
0 0 0 0 0 0 0 0 0 0 0 0 0 0 0 0 0 0 0 0 0 0 0 0 0 0 0 0 0 0 0 0 0 0 0 0 0 0 0 0 0 0 0
0 0 0 0 0 0 0 0 0 0 0 0 0 0 0 0 0 0 0 0 0 0 0 0 0 0 0 0 0 0 0 0 0 0 0 0 0 0 0 0 0 0 0
0 0 0 0 0 0 0 0 0 0 0 0 0 0 0 0 0 0 0 0 0 0 0 0 0 0 0 0 0 0 0 0 0 0 0 0 0 0 0 0 0 0 0
0 0 0 0 0 0 0 0 0 0 0 0 0 0 0 0 0 0 0 0 0 0 0 0 0 0 0 0 0 0 0 0 0 0 0 0 0 0 0 0 0 0 0
0 0 0 0 0 0 0 0 0 0 0 0 0 0 0 0 0 0 0 0 0 0 0 0 0 0 0 0 0 0 0 0 0 0 0 0 0 0 0 0 0 0 0
0 0 0 0 0 0 0 0 0 0 0 0 0 0 0 0 0 0 0 0 0 0 0 0 0 0 0 0 0 0 0 0 0 0 0 0 0 0 0 0 0 0 0
Wind_Speed
3 3 2 3 3 3 3 3 3 4 4 4 4 4 4 4 4 3 3 6 6 5 5 5 5 5 5 4 4 4 3 2 2 2 2 2 3 3 2 2 2 2 3
2 2 3 3 3 3 2 2 3 3 3 3 4 4 4 4 4 4 4 5 8 8 7 6 6 6 6 5 5 5 4 3 2 1 2 2 3 2 2 2 2 1 1
3 3 3 3 3 3 3 3 3 3 4 4 5 5 4 4 4 5 4 4 4 7 8 7 7 7 7 7 6 6 6 4 3 2 3 3 3 3 3 3 2 2 1
3 3 3 3 3 3 3 3 3 3 4 4 4 4 4 4 5 5 5 4 4 4 6 9 9 8 8 8 7 7 6 5 5 4 4 4 4 4 3 3 2 2 1
4 3 3 2 3 3 3 3 3 3 3 3 3 4 4 4 4 5 5 5 5 4 4 6 9 9 9 9 8 7 5 6 6 5 6 5 5 4 4 3 3 2 2
4 4 3 4 3 3 3 3 3 3 2 2 3 4 4 4 4 5 5 4 5 5 5 5 4 6 10 10 9 8 8 7 6 7 6 6 6 5 4 4 3 3 2
4 4 3 4 4 3 3 3 2 4 3 2 3 3 4 4 5 4 4 4 5 5 5 5 4 4 4 9 10 9 9 8 7 7 7 6 6 6 5 4 4 3 3
4 4 4 3 3 3 5 4 3 2 3 3 2 2 3 4 4 5 4 4 5 4 5 6 5 4 4 3 6 10 9 8 7 7 7 6 6 5 5 5 4 4 3
4 4 4 3 4 3 3 4 3 3 2 3 3 3 2 0 2 3 4 4 4 4 4 4 5 5 5 4 4 6 9 8 8 7 6 6 6 5 4 4 4 4 4
5 4 4 4 4 3 4 3 3 2 3 2 2 3 2 2 1 2 3 3 4 4 5 5 5 5 5 4 5 7 7 7 7 7 6 6 6 5 5 4 4 4 4
5 4 4 4 4 3 4 4 4 4 3 2 2 1 2 2 2 2 1 3 3 3 3 4 4 4 5 4 3 6 7 6 7 7 7 6 6 7 6 5 5 4 4
3 4 4 4 4 3 4 3 4 4 3 4 3 3 2 1 1 1 1 1 2 3 3 3 4 4 4 4 5 9 8 7 7 7 7 7 7 7 7 6 6 5 5
2 3 3 3 3 3 3 4 4 4 4 4 3 2 2 2 1 1 1 1 1 2 3 3 3 4 4 4 4 8 8 8 8 7 8 7 7 8 7 7 7 6 6
0 1 2 3 3 4 4 4 4 3 3 4 4 3 2 2 2 1 1 1 2 3 3 3 3 4 4 4 5 7 5 8 8 8 8 7 7 8 7 7 6 6 6
1 2 2 3 3 4 4 4 3 3 3 3 3 3 2 2 2 2 1 1 2 1 2 3 3 4 5 4 6 4 4 8 8 8 8 9 9 8 8 7 6 5 5
2 2 3 3 3 3 3 3 3 3 4 3 2 3 3 2 2 2 2 2 1 2 0 2 2 3 4 5 8 5 5 9 9 9 8 9 9 9 8 7 6 6 6
2 3 3 3 3 3 3 3 3 3 4 4 4 4 3 3 2 2 2 2 2 1 1 2 2 2 3 5 6 5 5 4 5 9 9 8 9 10 10 9 8 7 7
2 3 3 3 3 3 3 3 3 3 3 3 3 3 3 3 3 2 2 2 1 1 1 1 2 3 3 4 4 5 5 5 4 8 9 9 9 9 9 9 9 8 8
3 3 3 3 3 3 3 3 3 3 3 2 2 2 2 3 3 2 2 2 1 1 1 0 2 2 2 3 4 4 5 4 5 7 8 8 9 9 9 9 9 8 9
3 3 2 2 2 2 3 3 3 3 3 3 3 2 2 2 1 2 2 2 1 2 1 1 1 2 2 3 2 3 4 4 5 5 6 7 8 9 10 10 9 9 8
3 3 3 2 2 2 2 3 3 3 3 3 3 3 3 4 5 3 2 1 1 1 1 1 1 2 3 3 3 3 3 4 4 3 4 4 5 4 6 8 9 10 10
2 3 3 2 2 2 4 5 4 3 2 2 3 3 3 5 6 7 7 6 4 2 1 0 1 2 3 3 3 3 3 3 4 3 3 4 3 4 4 4 8 9 10
2 3 2 2 2 1 3 5 5 3 2 2 2 2 3 4 5 3 5 7 6 6 3 1 1 3 3 3 3 3 3 2 4 4 3 4 3 4 4 5 9 9 9
2 2 1 2 2 1 3 4 5 3 2 2 1 1 1 2 3 3 3 3 3 4 4 2 2 3 4 3 3 3 3 3 4 3 1 3 4 4 6 5 8 9 10
2 2 2 2 2 1 2 3 4 3 2 2 1 1 1 1 4 5 3 3 4 4 5 6 6 6 7 7 5 2 2 2 4 3 1 2 4 4 4 4 5 9 10
3 3 2 1 1 0 1 2 3 2 2 1 1 2 3 4 4 4 2 1 3 4 4 5 6 7 6 6 7 2 1 2 3 4 2 2 3 3 5 3 3 4 5
Wind_Direction
46 34 26 20 19 20 29 29 28 28 28 29 37 46 37 30 25 24 13 24 30 30 35 37 35 38 36 35 34 40 39 46 77 101 111 122 120 118 125 122 132 161 174
59 49 35 23 18 16 25 35 35 36 33 37 38 39 41 37 32 30 26 21 31 34 39 40 40 39 37 34 30 27 18 24 65 93 115 126 119 115 115 108 95 113 160
61 60 48 30 13 14 29 38 36 39 41 42 38 35 39 37 37 33 29 26 20 27 36 41 40 39 37 35 32 27 23 33 61 85 95 101 104 96 88 93 96 80 86
57 59 49 30 13 25 34 42 38 41 38 40 39 31 33 33 34 35 34 28 26 22 24 35 37 36 37 35 33 30 38 46 61 76 83 84 86 84 81 78 69 55 41
51 61 52 31 26 37 33 42 44 47 42 34 46 43 33 33 28 33 32 27 25 24 23 28 33 31 32 30 30 29 51 57 62 72 73 70 70 68 66 56 41 33 20
49 57 53 36 37 46 34 37 50 45 48 30 51 49 35 31 34 32 27 25 25 25 28 31 25 19 26 27 29 32 45 54 54 55 56 56 57 56 55 46 30 22 15
45 54 52 40 40 50 40 37 51 49 34 16 50 29 15 29 40 29 19 23 24 20 27 31 28 25 18 25 28 32 36 40 44 44 40 40 41 41 38 36 26 15 7
36 52 53 48 43 50 41 35 45 55 33 28 71 70 19 2 6 16 16 25 21 18 25 28 27 26 21 22 21 29 30 32 37 38 35 31 30 26 21 14 7 6 13
37 45 51 56 49 53 51 37 40 67 62 28 45 101 106 284 327 345 10 19 17 21 15 16 27 23 22 22 13 19 24 25 25 25 23 21 21 14 4 359 354 355 1
36 40 48 54 54 52 53 40 45 53 78 53 30 43 87 136 113 349 343 359 13 21 13 15 18 15 15 12 11 15 18 18 17 16 13 10 5 358 350 340 337 335 339
30 36 43 51 51 50 53 51 47 51 59 73 61 49 55 52 65 104 352 340 352 357 7 7 8 9 9 5 359 6 10 13 15 12 11 8 2 356 349 344 341 335 331
21 27 39 46 50 51 53 55 56 59 57 64 60 57 67 69 48 80 87 346 339 327 348 4 11 3 1 0 4 9 10 8 10 11 7 3 359 351 343 340 335 330 326
23 12 33 41 44 48 55 59 62 56 54 63 62 55 56 58 85 108 104 48 360 330 341 352 359 360 2 2 359 7 9 8 4 3 2 360 357 349 340 335 331 327 322
50 24 46 48 48 53 60 61 62 54 56 59 58 58 55 37 45 81 119 117 43 359 0 342 335 357 358 356 358 5 3 4 5 4 360 355 354 351 342 334 329 328 328
84 60 59 57 52 56 62 67 61 50 57 54 53 56 54 29 36 43 69 108 121 64 341 330 336 343 349 354 359 2 357 358 3 2 1 360 357 353 350 346 338 328 326
75 73 63 62 58 58 64 68 60 46 58 44 47 54 45 25 31 36 46 53 89 139 212 300 305 318 338 357 1 360 356 2 4 360 358 359 356 355 355 352 349 340 329
84 82 79 76 70 63 62 69 62 57 62 47 40 49 37 31 37 29 37 44 48 89 136 301 306 321 346 350 347 346 347 352 351 357 357 0 359 358 359 359 359 352 343
83 84 85 79 73 66 64 73 68 59 64 55 37 42 27 35 37 26 32 32 25 49 123 316 322 332 333 335 337 342 347 352 346 353 355 359 357 356 358 360 0 358 356
87 79 85 84 78 73 74 74 77 65 59 51 41 43 21 41 31 18 24 19 1 21 71 110 316 319 316 329 339 340 342 338 343 351 353 354 353 351 350 350 351 354 357
99 91 88 88 88 86 84 82 77 68 56 43 36 38 29 44 35 19 23 8 11 26 26 26 330 321 315 316 337 335 337 336 333 342 345 345 348 349 347 345 345 348 348
101 98 91 75 79 92 100 102 89 79 66 45 31 28 29 42 39 34 36 18 38 37 20 11 341 338 329 332 328 316 319 318 318 338 332 334 338 339 339 339 344 345 343
94 88 86 85 78 79 103 110 107 89 70 58 36 17 24 33 29 28 30 31 33 41 9 356 322 316 301 296 301 308 312 331 319 323 329 314 326 320 321 323 333 339 342
107 97 92 91 84 75 105 110 107 102 88 73 55 29 24 20 21 19 20 22 15 14 9 256 260 276 281 281 291 300 291 281 274 294 317 301 312 308 309 320 330 338 342
123 126 122 116 102 81 101 105 103 93 84 67 54 43 28 353 356 18 24 14 355 344 338 338 263 271 275 273 252 257 266 283 284 288 305 289 300 298 307 308 323 335 338
128 128 122 120 112 93 99 110 107 99 82 46 13 16 17 349 351 15 31 7 347 334 336 344 339 337 336 337 335 344 338 333 306 293 292 282 290 298 294 293 308 321 325
143 126 103 106 128 161 100 112 114 113 101 36 352 347 354 353 354 6 21 1 333 315 326 337 341 341 339 336 341 333 277 289 292 292 286 290 290 312 306 289 297 310 312